Погода в Куэпосе

Коста-Рика     9°25′31″N   84°09′42″W
темп.,
°C
ветер,
м/с
пор.,
м/с
влажн.,
%
обл.,
%
осадки,
мм/ч
давл.,
гПа
погр.,
м
9 августа, вт
вт900:00+24всв228684 5.3 101037
03:00+23св228749 0.5 100953
06:00+23св228684 0.6 101169
09:00+28ююв217273 0.0 1011521
12:00+28ю327388 0.2 1010777
15:00+28ю2276100 2.7 1009719
18:00+25ююз2290100 9.3 101070
21:00+25всв1188100 5.3 101227
10 августа, ср
ср1000:00+24св2188100 5.8 101150
03:00+24всв2287100 0.0 101068
06:00+23всв2285100 0.0 101173
09:00+27юв1276100 0.0 1012431
12:00+28ю3377100 1.0 1011713
15:00+27ю2278100 3.5 1010652
18:00+25юв2289100 6.6 1011118
21:00+24вюв2290100 6.3 101359
11 августа, чт
чт1100:00+24с019096 7.6 101286
03:00+23с119274 0.6 1011103
06:00+23с119089 0.6 101172
09:00+27ююз117997 0.0 1012522
12:00+27ююз338283 1.4 1011569
15:00+26ююз2286100 5.2 1010414
18:00+24ююв1296100 11.9 1011140
21:00+22св2397100 24.9 1013166
12 августа, пт
пт1200:00+22с1194100 41.0 101371
03:00+22всв1196100 3.9 101263
06:00+22в1195100 8.2 1013114
09:00+22з0195100 2.9 1015149
12:00+23з0090100 3.8 1014212
15:00+24з1289100 0.4 1011184
18:00+24зюз1190100 0.5 1012142
21:00+23зсз0089100 0.0 1014145
13 августа, сб
сб1300:00+23ссз1190100 0.0 1013106
03:00+23ссв1190100 0.0 101270
06:00+23св118873 0.0 101265
09:00+26ю2276100 0.0 1014638
12:00+28ю326913 0.1 1013962
15:00+26ю327486 0.1 1011614
18:00+25ююз118387 0.1 1012143
21:00+24св118690 0.0 1014123